Tracking 29091 objects as of 17-Jul-2024
HD Live streaming from Space Station
objects crossing your sky now

ATLAS 5 CENTAUR DEB

Track ATLAS 5 CENTAUR DEB now!


NORAD ID: 44658
Int'l Code: 2018-079U
Perigee: 8,600.9 km
Apogee: 35,386.8 km
Inclination: 12.7 °
Period: 792.4 minutes
Semi major axis: 28364 km
RCS: Unknown
Launch date: October 17, 2018
Source: United States (US)
Launch site: AIR FORCE EASTERN TEST RANGE (AFETR)

Note: This is SATELLITE DEBRIS
Your satellite tracking list
Your tracking list is empty




NASA's NSSDC Master Catalog

Two Line Element Set (TLE):
1 44658U 18079U   24197.07274226 -.00000150  00000-0  00000-0 0  9992
2 44658  12.7165  89.0881 4721677 203.0810 125.7474  1.81732651 34239
Source of the keplerian elements: AFSPC